This demonstration page uses our WeatherBlox Daily Observations layout. Learn more.

Hourly Observations for October 22, 2019

Temp ( °F °C ) Dew Point ( °F °C ) Humidity (%) Winds ( mph kmh ) Pressure ( in mb ) Visibility ( mi km ) Precip ( " mm )
12:54 am 00:54 Clear 46 7.8 30 -1.1 54 54 NW 18 30 29.83 1010 10 16.09344 0 0
1:54 am 01:54 Clear 45 7.2 29 -1.7 54 54 WNW 20 31 29.85 1011 10 16.09344 0 0
2:54 am 02:54 Clear 44 6.7 29 -1.7 55 55 WNW 16 26 29.88 1012 10 16.09344 0 0
3:54 am 03:54 Clear 42 5.6 30 -1.1 62 62 W 13 20 29.88 1012 10 16.09344 0 0
4:54 am 04:54 Clear 42 5.6 29 -1.7 60 60 WNW 23 37 29.88 1012 10 16.09344 0 0
5:54 am 05:54 Clear 42 5.6 29 -1.7 60 60 WNW 22 35 29.91 1013 10 16.09344 0 0
6:54 am 06:54 Clear 41 5 29 -1.7 62 62 WNW 16 26 29.94 1014 10 16.09344 0 0
7:54 am 07:54 Sunny 41 5 28 -2.2 60 60 W 16 26 29.94 1014 10 16.09344 0 0
8:54 am 08:54 Sunny 43 6.1 28 -2.2 56 56 WNW 17 28 29.97 1015 10 16.09344 0 0
9:54 am 09:54 Sunny 46 7.8 27 -2.8 47 47 WNW 20 31 30 1016 10 16.09344 0 0
10:54 am 10:54 Sunny 49 9.4 26 -3.3 41 41 WNW 18 30 30 1016 10 16.09344 0 0
11:54 am 11:54 Sunny 53 11.7 25 -3.9 34 34 WNW 18 30 30 1016 10 16.09344 0 0
12:54 pm 12:54 Sunny 55 12.8 24 -4.4 30 30 WNW 21 33 30 1016 10 16.09344 0 0
1:54 pm 13:54 Mostly Sunny 57 13.9 26 -3.3 30 30 W 15 24 29.97 1015 10 16.09344 0 0
2:54 pm 14:54 Partly Cloudy 57 13.9 28 -2.2 33 33 W 20 31 29.94 1014 10 16.09344 0 0
3:54 pm 15:54 Partly Cloudy 59 15 28 -2.2 31 31 WNW 16 26 29.91 1013 10 16.09344 0 0
4:54 pm 16:54 Mostly Cloudy 59 15 29 -1.7 32 32 W 15 24 29.91 1013 10 16.09344 0 0
5:54 pm 17:54 Mostly Sunny 59 15 29 -1.7 32 32 WNW 7 11 29.91 1013 10 16.09344 0 0
6:54 pm 18:54 Clear 56 13.3 29 -1.7 36 36 WSW 6 9 29.91 1013 10 16.09344 0 0
7:54 pm 19:54 Clear 48 8.9 32 0 54 54 SW 3 6 29.91 1013 10 16.09344 0 0
8:54 pm 20:54 Clear 46 7.8 31 -0.6 56 56 Calm 29.88 1012 10 16.09344 0 0
9:54 pm 21:54 Clear 45 7.2 30 -1.1 56 56 Calm 29.88 1012 10 16.09344 0 0
10:54 pm 22:54 Mostly Cloudy 43 6.1 31 -0.6 63 63 SSE 5 7 29.88 1012 10 16.09344 0 0
11:54 pm 23:54 Clear 43 6.1 33 0.6 68 68 Calm 29.88 1012 10 16.09344 0 0

Powered by AerisWeather